Flag for U.S.A. Weather past 2 weeks in Huntington Beach, California, U.S.A.

Now
60 °F

Passing clouds.


Feels Like: 60 °F
Forecast: 53 / 67 °F
Wind: No wind

Location: John Wayne Airport-Orange County Airport

Current Time: Dec 19, 2014 at 10:45:57 PM

Latest Report: Dec 19, 2014 at 9:53 PM


Visibility: 10 mi

Pressure: 30.19 "Hg

Humidity: 69%

Dew point: 50 °F

Location of Huntington BeachLocation

Historic Weather in Huntington Beach — Graph

°F

Huntington Beach temperature yesterday

Maximum temperature yesterday: 65 °F (at 11:53 AM)
Minimum temperature yesterday: 52 °F (at 5:53 AM)
Average temperature yesterday: 59 °F

Past Weeks' High & Low Weather Summary

 TemperatureHumidityPressure
High78 °F (Dec 8, 12:53 PM)88% (Dec 12, 6:00 AM)30.24 "Hg (Dec 12, 6:00 AM)
Low50 °F (Dec 14, 5:53 AM)39% (Dec 7, 2:53 PM)29.85 "Hg (Dec 12, 3:53 AM)
Average62 °F68%30.06 "Hg
* Reported Dec 4 9:53 PM — Dec 19 9:53 PM, Huntington Beach, Weather by CustomWeather, © 2014

Note: Actual official high and low records may vary slightly from our data, if they occured in-between our weather recording intervals... More about our weather records

Advertising

Huntington Beach weather history for previous 24 hours

 ConditionsComfort  
Time TempWeatherWind HumidityBarometerVisibility
9:53 PM
Dec 19
60 °FPassing clouds.No wind69%30.19 "Hg10 mi
8:53 PM61 °FPassing clouds.5 mph65%30.17 "Hg10 mi
7:53 PM62 °FPassing clouds.No wind62%30.18 "Hg10 mi
6:53 PM63 °FPassing clouds.No wind63%30.17 "Hg10 mi
5:53 PM63 °FPartly cloudy.No wind63%30.16 "Hg10 mi
4:53 PM64 °FClear.No wind58%30.14 "Hg10 mi
3:53 PM65 °FBroken clouds.5 mph59%30.14 "Hg10 mi
2:53 PM65 °FBroken clouds.8 mph63%30.15 "Hg10 mi
1:53 PM66 °FBroken clouds.7 mph50%30.16 "Hg10 mi
12:53 PM69 °FBroken clouds.5 mph49%30.18 "Hg10 mi
11:53 AM68 °FScattered clouds.5 mph45%30.19 "Hg10 mi
10:53 AM66 °FScattered clouds.No wind49%30.21 "Hg10 mi
9:53 AM63 °FPassing clouds.No wind54%30.24 "Hg10 mi
8:53 AM59 °FPassing clouds.No wind62%30.23 "Hg10 mi
7:53 AM55 °FScattered clouds.5 mph72%30.22 "Hg10 mi
6:53 AM52 °FScattered clouds.No wind77%30.22 "Hg10 mi
5:53 AM52 °FPassing clouds.No wind77%30.21 "Hg10 mi
4:53 AM52 °FClear.No wind80%30.19 "Hg10 mi
3:53 AM52 °FClear.No wind80%30.19 "Hg10 mi
2:53 AM53 °FClear.No wind80%30.19 "Hg10 mi
1:53 AM54 °FClear.No wind77%30.21 "Hg10 mi
12:53 AM55 °FClear.No wind74%30.20 "Hg10 mi
11:53 PM
Dec 18
55 °FClear.No wind74%30.21 "Hg10 mi
10:53 PM57 °FClear.No wind72%30.21 "Hg10 mi
Weather by CustomWeather, © 2014

See weather overviewHow to use our weather pages